Zurück zum Katalog

CZ-4 DEB

AktivPO
NORAD 26127·DEBRIS·🇨🇳 China

Gestartet Oct 14, 1999 von Taiyuan Satellite Launch Center

Loading…

Nächste Überflüge (nächste 24 Stunden)

TLE

AktuellSource: Space-Track

Epoche: Sep 13, 2026, 11:21 UTC

1 26127U 99057P   26256.47294095  .00013128  00000-0  11451-2 0  9998
2 26127  98.4566  78.0706 0050891 162.2529 252.6811 14.95987163397913

Verfolge CZ-4 DEB in Echtzeit mit AllMySat

Download on the App Store